Terug naar catalogus

COSMOS 862

LostMilitairHEO
NORAD 9495·PAYLOAD·🇷🇺 Russia

Gelanceerd Oct 22, 1976 vanaf Plesetsk Cosmodrome

Loading…

Volgende Passages (komende 24 uur)

TLE

VerouderdSource: Space-Track

Epoch: Mar 21, 2026, 06:44 UTC

1 09495U 76105A   26080.28068858  .00000641  00000-0  00000-0 0  9998
2 09495  70.5006  42.1102 6268675 183.7336 167.5610  2.00630682239892

Volg COSMOS 862 in realtime met AllMySat

Download on the App Store